Date,TemperatureHighF,TemperatureAvgF,TemperatureLowF,DewpointHighF,DewpointAvgF,DewpointLowF,HumidityHigh,HumidityAvg,HumidityLow,PressureMaxIn,PressureMinIn,WindSpeedMaxMPH,WindSpeedAvgMPH,GustSpeedMaxMPH,PrecipitationSumIn
2013-1-1,47.1,39.8,33.3,39.0,33.5,29.7,90,78,66,30.29,30.23,21,3,26,0.00
2013-1-2,52.3,41.1,33.1,41.0,33.4,26.6,91,74,62,30.28,30.17,13,2,13,0.00
2013-1-3,53.2,41.8,32.2,41.0,34.1,25.7,91,75,58,30.30,30.18,12,2,12,0.00
2013-1-4,54.7,45.4,36.1,40.6,37.1,31.8,90,74,56,30.31,30.21,11,2,11,0.00
2013-1-5,54.9,45.9,37.2,46.6,42.0,34.7,94,87,71,30.29,30.08,17,2,17,0.19
2013-1-6,46.4,42.4,36.1,44.8,41.1,34.9,97,95,92,30.23,30.08,12,2,12,0.20
2013-1-7,56.1,43.3,32.7,48.2,40.1,32.0,98,89,58,30.30,30.19,10,1,10,0.01
2013-1-8,59.2,50.2,42.6,46.9,42.5,38.8,94,76,55,30.24,30.14,16,3,16,0.00
2013-1-9,52.2,44.5,38.7,47.5,41.0,35.4,95,88,77,30.17,30.01,24,1,26,0.07
2013-1-10,47.1,39.4,34.3,37.8,33.8,29.7,94,82,55,30.22,30.09,15,1,16,0.01
2013-1-11,47.7,38.9,30.2,39.9,33.7,27.9,93,82,56,30.29,30.16,20,1,23,0.00
2013-1-12,39.9,36.4,32.5,29.8,27.2,25.2,75,69,57,30.22,30.16,5,1,6,0.00
2013-1-13,44.4,37.4,28.2,27.3,21.0,13.5,85,54,35,30.30,30.20,22,3,22,0.00
2013-1-14,45.5,40.0,34.3,25.0,16.4,11.5,68,38,29,30.43,30.25,20,5,20,0.00
2013-1-15,50.2,38.3,30.4,31.8,28.0,22.5,84,68,43,30.50,30.42,12,2,12,0.00
2013-1-16,53.2,40.4,30.6,36.9,32.3,27.7,92,74,52,30.47,30.30,13,2,13,0.00
2013-1-17,57.9,44.0,33.4,39.7,34.6,29.3,87,71,49,30.30,30.19,13,2,13,0.00
2013-1-18,60.3,47.0,37.6,41.9,35.8,31.6,81,66,43,30.25,30.16,13,2,13,0.00
2013-1-19,59.4,47.8,38.8,42.4,36.2,28.8,84,65,46,30.27,30.19,14,2,15,0.00
2013-1-20,59.5,47.8,38.3,40.1,34.0,27.1,84,59,42,30.25,30.15,14,2,14,0.00
2013-1-21,60.3,46.9,34.7,42.8,35.1,24.3,84,64,48,30.21,30.12,12,2,12,0.00
2013-1-22,61.3,48.9,37.9,44.6,37.4,29.5,79,65,49,30.14,30.04,13,2,13,0.00
2013-1-23,60.1,49.8,45.5,48.9,42.2,31.8,95,76,35,30.10,29.97,13,1,13,0.06
2013-1-24,52.3,50.2,48.0,50.2,48.7,46.6,97,95,89,30.21,30.08,12,2,12,0.50
2013-1-25,62.2,54.5,49.8,58.5,52.7,48.9,98,94,83,30.21,30.06,14,1,14,0.08
2013-1-26,53.4,49.0,45.1,50.5,44.9,39.6,98,86,62,30.10,30.02,17,2,18,0.02
2013-1-27,51.4,44.7,38.5,41.4,38.2,34.3,93,79,56,30.19,30.09,12,1,13,0.00
2013-1-28,53.8,43.1,35.2,42.4,38.5,33.3,96,85,62,30.32,30.18,11,1,11,0.00
2013-1-29,56.7,45.7,36.9,45.1,40.5,35.6,97,83,54,30.38,30.29,16,2,16,0.01
2013-1-30,63.3,56.1,42.6,43.5,37.2,25.7,76,50,28,30.36,30.27,24,4,24,0.00
2013-1-31,61.3,48.8,38.3,48.6,41.0,32.5,91,75,59,30.30,30.20,11,2,12,0.00
2013-2-1,63.3,50.3,37.2,50.7,44.0,34.9,96,80,60,30.25,30.14,13,2,13,0.00
2013-2-2,58.8,49.6,43.3,51.4,45.3,39.2,96,85,74,30.30,30.22,12,2,13,0.00
2013-2-3,56.3,47.4,40.8,46.9,43.6,39.2,96,87,69,30.27,30.15,11,2,11,0.00
2013-2-4,61.2,47.1,37.6,51.1,43.3,36.1,97,87,65,30.20,30.09,11,2,11,0.01
2013-2-5,53.1,46.8,42.4,46.6,43.9,40.6,97,90,76,30.17,30.09,9,1,9,0.01
2013-2-6,56.3,44.9,36.1,45.7,40.3,34.9,96,85,61,30.22,30.14,14,2,14,0.00
2013-2-7,52.3,42.7,35.6,45.5,38.7,33.8,95,86,69,30.21,30.02,12,2,12,0.07
2013-2-8,49.5,41.2,35.2,41.9,38.0,33.1,96,88,71,30.03,29.96,14,2,15,0.05
2013-2-9,54.3,42.9,33.6,36.1,31.0,26.8,93,65,39,30.13,30.01,15,2,15,0.00
2013-2-10,56.1,43.5,32.4,38.7,34.2,28.8,89,71,47,30.14,30.05,15,2,15,0.00
2013-2-11,58.3,46.2,36.9,35.2,31.3,27.5,89,59,33,30.27,30.09,18,2,18,0.00
2013-2-12,58.6,46.0,36.7,41.9,35.3,30.9,83,67,44,30.37,30.26,12,2,13,0.00
2013-2-13,61.2,47.3,36.3,43.5,38.6,33.4,92,74,45,30.36,30.24,14,2,14,0.00
2013-2-14,64.8,53.8,39.6,44.6,40.1,36.1,90,62,42,30.27,30.18,18,4,22,0.00
2013-2-15,66.9,54.2,41.4,50.7,42.0,33.4,83,64,51,30.28,30.23,12,2,13,0.00
2013-2-16,65.1,53.5,43.5,51.1,42.5,34.0,85,67,53,30.26,30.07,12,2,12,0.00
2013-2-17,61.3,49.4,39.7,47.3,41.9,36.7,93,76,52,30.08,29.98,16,2,17,0.00
2013-2-18,49.5,44.2,38.7,43.5,39.9,36.5,94,85,72,30.06,30.00,10,2,12,0.00
2013-2-19,46.6,41.0,36.7,41.7,37.5,32.9,94,87,79,29.96,29.77,18,2,18,0.54
2013-2-20,53.6,42.3,32.4,40.6,35.8,29.8,94,79,54,30.10,29.86,12,2,15,0.00
2013-2-21,55.6,44.7,36.1,40.1,36.9,30.9,95,76,40,30.20,30.08,22,3,22,0.01
2013-2-22,59.4,46.3,35.1,43.5,37.3,32.0,90,73,43,30.29,30.19,16,2,16,0.00
2013-2-23,55.2,47.2,38.5,44.6,40.1,31.3,96,77,51,30.28,30.16,19,3,19,0.02
2013-2-24,57.6,48.0,38.7,32.7,27.6,23.0,72,46,31,30.27,30.19,22,4,24,0.00
2013-2-25,61.2,47.3,35.4,45.3,36.4,28.0,89,67,40,30.30,30.19,12,2,13,0.00
2013-2-26,53.1,42.4,35.4,34.7,30.1,22.6,89,65,32,30.23,30.19,19,3,19,0.00
2013-2-27,66.4,55.3,37.6,42.3,36.5,29.1,82,51,26,30.40,30.27,12,2,12,0.00
2013-2-28,65.7,52.3,40.6,53.1,46.0,38.5,94,80,60,30.46,30.39,13,2,13,0.00
2013-3-1,68.4,56.1,43.0,52.3,47.6,41.5,97,75,53,30.45,30.26,16,3,16,0.00
2013-3-2,70.2,58.5,48.4,55.4,49.3,42.1,89,72,41,30.27,30.07,10,2,10,0.00
2013-3-3,61.9,53.6,45.1,50.7,46.9,43.2,94,79,55,30.12,30.04,15,2,18,0.00
2013-3-4,60.4,48.5,41.7,50.0,44.2,39.2,93,86,65,30.17,30.06,13,1,13,0.00
2013-3-5,59.2,49.2,40.1,43.7,40.9,34.7,96,74,46,30.09,29.89,26,6,26,0.00
2013-3-6,54.3,47.7,38.7,44.8,41.2,36.1,92,79,55,30.09,29.89,25,3,25,0.23
2013-3-7,57.6,45.9,37.0,44.2,39.5,33.6,95,80,42,30.02,29.87,17,2,17,0.27
2013-3-8,56.1,48.1,41.7,46.4,42.7,38.8,96,82,60,30.09,29.83,17,2,18,0.03
2013-3-9,62.2,50.9,43.0,45.7,41.8,38.3,87,72,46,30.33,30.09,17,2,17,0.00
2013-3-10,66.0,53.0,38.1,42.3,37.3,32.0,91,59,29,30.36,30.27,16,3,16,0.00
2013-3-11,70.0,54.3,41.2,48.7,42.0,35.4,86,65,39,30.29,30.13,14,2,14,0.00
2013-3-12,72.1,57.0,44.1,53.6,47.1,39.0,91,71,45,30.16,30.08,18,3,18,0.00
2013-3-13,74.7,61.1,46.9,57.6,50.8,43.3,91,71,49,30.17,30.07,13,2,13,0.00
2013-3-14,72.7,59.9,50.2,59.9,50.7,42.3,91,73,46,30.16,30.09,12,2,13,0.00
2013-3-15,68.7,56.1,45.0,54.9,46.0,38.8,84,69,53,30.14,30.06,9,2,10,0.00
2013-3-16,71.2,55.4,43.9,55.0,46.1,38.5,96,73,35,30.13,30.05,15,3,15,0.00
2013-3-17,65.7,52.3,41.0,49.8,43.8,38.8,94,75,46,30.16,30.06,11,2,11,0.00
2013-3-18,65.8,53.4,41.5,52.0,43.6,37.0,88,70,49,30.14,30.05,10,2,10,0.00
2013-3-19,72.0,55.2,45.7,51.1,44.4,37.0,91,68,42,30.17,30.06,13,3,13,0.10
2013-3-20,66.2,55.7,50.5,55.0,50.7,46.4,95,85,55,30.15,30.07,15,2,15,0.07
2013-3-21,60.3,50.7,40.8,49.1,43.9,37.8,92,78,58,30.15,30.03,15,3,16,0.00
2013-3-22,64.0,54.0,41.2,41.4,26.9,15.1,94,40,15,30.12,30.03,23,5,23,0.00
2013-3-23,65.1,55.9,47.1,38.3,28.2,19.2,67,36,26,30.15,30.05,19,4,19,0.00
2013-3-24,68.7,54.6,41.4,50.4,41.1,33.1,80,62,40,30.10,29.98,11,2,12,0.00
2013-3-25,63.9,53.0,42.8,48.4,43.9,37.9,90,72,51,30.03,29.95,13,3,13,0.00
2013-3-26,65.8,52.6,43.0,51.6,45.2,40.3,93,77,52,30.03,29.94,10,2,10,0.00
2013-3-27,65.1,54.5,45.5,54.3,48.6,42.6,93,81,59,30.03,29.96,15,2,16,0.00
2013-3-28,68.9,58.9,52.0,57.6,52.3,48.9,93,80,58,30.09,30.02,10,2,11,0.00
2013-3-29,73.2,59.9,46.6,58.3,52.1,45.1,97,77,54,30.09,30.02,15,2,15,0.00
2013-3-30,71.8,59.7,53.6,55.0,51.7,44.2,93,77,40,30.06,29.98,17,3,19,0.06
2013-3-31,67.8,57.7,48.9,53.1,49.7,44.1,94,76,45,30.08,29.99,17,4,18,0.05
2013-4-1,66.0,55.9,48.6,54.7,50.9,45.1,97,84,61,30.17,30.06,13,2,14,0.18
2013-4-2,66.7,54.8,43.7,55.8,49.5,42.4,96,83,61,30.19,30.09,10,2,12,0.00
2013-4-3,74.5,58.1,45.1,58.3,50.6,44.1,97,78,51,30.16,29.99,12,2,13,0.01
2013-4-4,64.6,57.0,50.2,56.8,52.5,45.1,92,85,71,30.13,30.00,15,3,15,0.22
2013-4-5,63.9,55.6,49.5,54.7,50.6,47.5,95,84,65,30.20,30.13,14,2,15,0.22
2013-4-6,63.0,54.7,47.7,56.3,50.5,46.0,95,86,72,30.21,30.15,14,1,14,0.00
2013-4-7,63.7,53.2,45.7,56.1,48.8,44.1,96,86,70,30.20,29.87,14,2,16,0.18
2013-4-8,63.1,51.7,43.5,48.7,39.2,27.5,93,66,26,30.03,29.83,33,5,33,0.03
2013-4-9,70.0,58.3,44.4,42.4,35.1,28.0,91,45,22,30.11,30.03,26,6,27,0.00
2013-4-10,80.1,64.1,46.6,56.8,46.6,36.7,80,55,35,30.19,30.06,16,4,23,0.00
2013-4-11,67.3,56.9,48.7,53.8,48.2,42.4,94,74,50,30.08,29.86,15,3,15,0.00
2013-4-12,74.5,56.9,43.5,55.0,45.6,40.8,94,69,36,29.93,29.85,12,2,12,0.00
2013-4-13,69.1,54.6,46.2,52.5,45.1,39.7,88,71,52,29.93,29.86,13,2,13,0.00
2013-4-14,65.1,51.7,40.5,46.8,42.1,34.7,91,72,35,29.94,29.89,17,2,17,0.00
2013-4-15,55.8,47.9,41.2,47.7,41.8,35.6,95,80,57,29.98,29.88,24,3,34,0.03
2013-4-16,62.1,48.5,36.1,41.0,37.3,33.8,94,69,37,30.17,29.98,11,2,20,0.00
2013-4-17,64.9,54.6,43.0,38.1,31.2,23.2,82,43,21,30.26,30.17,20,5,24,0.00
2013-4-18,73.0,57.3,42.3,43.0,36.1,29.3,80,48,24,30.29,30.20,20,3,21,0.00
2013-4-19,79.7,62.2,46.8,51.6,45.0,38.1,80,56,29,30.25,30.09,14,2,14,0.00
2013-4-20,76.6,62.0,48.4,49.8,45.1,38.7,89,58,31,30.11,29.99,23,2,23,0.00
2013-4-21,82.8,66.9,49.3,48.6,43.6,36.0,79,47,22,30.05,29.94,13,2,15,0.00
2013-4-22,84.2,69.9,54.7,49.1,43.9,38.1,71,42,20,29.98,29.85,15,3,17,0.00
2013-4-23,79.9,66.7,52.3,48.7,34.7,22.8,73,34,17,29.94,29.85,18,4,19,0.00
2013-4-24,73.6,58.2,45.1,54.3,46.4,36.1,92,66,42,29.96,29.83,16,2,18,0.00
2013-4-25,71.8,56.8,46.0,54.7,49.5,44.1,95,78,51,30.15,29.95,14,3,14,0.00
2013-4-26,74.7,57.8,45.9,56.7,49.8,43.7,95,77,50,30.23,30.14,10,2,10,0.00
2013-4-27,80.1,61.1,46.8,56.3,50.5,43.7,96,72,40,30.23,30.08,10,2,10,0.00
2013-4-28,85.3,66.2,48.7,57.7,51.3,43.3,89,62,35,30.09,29.90,10,2,11,0.00
2013-4-29,87.1,72.9,56.7,54.0,48.2,39.7,83,45,25,29.91,29.76,16,2,16,0.00
2013-4-30,80.1,67.2,50.5,53.4,41.1,9.1,87,47,10,29.85,29.78,21,3,21,0.00
2013-5-1,81.5,71.7,60.6,38.1,25.7,12.6,34,18,11,30.08,29.85,24,5,24,0.00
2013-5-2,89.2,73.0,57.7,38.7,30.3,13.8,42,22,12,30.16,30.08,16,3,16,0.00
2013-5-3,88.0,70.9,54.3,42.3,34.7,27.9,57,29,12,30.10,29.81,11,2,12,0.00
2013-5-4,86.7,71.1,54.9,50.4,39.9,30.6,70,36,14,29.81,29.55,17,3,17,0.00
2013-5-5,71.4,58.7,52.3,49.8,46.4,44.6,78,65,40,29.81,29.59,25,7,25,0.00
2013-5-6,67.5,60.4,51.1,52.3,48.9,45.1,82,66,50,29.98,29.81,14,2,14,0.00
2013-5-7,70.2,59.8,51.8,53.4,49.6,46.2,86,70,51,30.06,29.96,12,2,13,0.00
2013-5-8,68.7,56.7,49.3,54.3,49.4,44.4,93,78,57,30.17,30.05,16,2,16,0.00
2013-5-9,70.3,57.0,48.0,53.4,49.9,45.5,94,79,53,30.20,30.10,12,2,13,0.00
2013-5-10,77.2,60.8,48.6,58.1,52.1,46.9,95,75,50,30.21,30.12,15,2,15,0.00
2013-5-11,90.1,69.7,51.6,59.0,52.8,47.8,94,60,26,30.16,30.04,11,2,11,0.00
2013-5-12,86.9,69.2,55.2,56.5,47.5,32.4,79,48,26,30.13,30.04,13,3,13,0.00
2013-5-13,82.2,66.8,54.3,57.0,48.2,33.4,73,52,36,30.09,29.96,12,4,13,0.00
2013-5-14,80.2,64.3,52.5,55.6,48.9,36.5,89,61,23,30.03,29.93,16,4,16,0.00
2013-5-15,71.4,58.2,48.6,48.4,44.8,37.4,85,64,33,30.08,30.01,16,4,17,0.00
2013-5-16,70.0,57.4,50.9,55.6,50.1,46.0,91,78,51,30.06,29.99,14,2,16,0.02
2013-5-17,68.0,56.4,45.7,47.8,45.4,40.1,88,69,42,30.11,30.00,13,2,14,0.00
2013-5-18,73.8,58.4,43.0,51.1,46.2,40.1,93,67,39,30.15,30.10,14,3,14,0.00
2013-5-19,80.8,64.8,47.7,51.1,45.1,37.0,91,54,29,30.13,29.99,15,2,15,0.00
2013-5-20,87.6,70.9,52.0,44.6,37.3,30.2,74,34,14,30.01,29.94,20,3,20,0.00
2013-5-21,70.3,58.9,46.6,51.1,44.6,32.9,85,61,30,30.01,29.91,20,3,20,0.00
2013-5-22,65.1,52.1,41.2,42.3,37.1,26.1,89,61,27,30.01,29.94,19,2,19,0.00
2013-5-23,66.6,53.9,43.9,44.8,41.5,36.9,89,65,38,30.03,29.95,13,3,15,0.00
2013-5-24,74.8,55.8,42.3,46.4,40.3,29.1,81,59,21,30.02,29.97,14,3,14,0.00
2013-5-25,67.8,55.2,44.4,48.2,43.6,39.4,87,67,41,30.09,29.99,17,3,17,0.00
2013-5-26,68.7,57.5,50.7,53.8,50.6,47.5,95,79,52,30.16,30.08,13,2,15,0.01
2013-5-27,63.3,57.5,50.5,55.4,51.3,46.0,93,80,69,30.16,30.02,12,1,12,0.03
2013-5-28,70.5,60.0,53.2,58.5,53.8,48.6,95,81,55,30.03,29.93,13,2,16,0.02
2013-5-29,70.7,59.6,51.4,55.9,50.4,46.9,87,72,47,29.99,29.93,19,3,19,0.00
2013-5-30,79.9,60.6,44.6,49.8,42.8,9.9,93,59,8,30.00,29.94,17,3,17,0.00
2013-5-31,87.4,68.8,48.9,47.8,42.2,37.8,70,42,22,30.02,29.93,14,2,14,0.00
2013-6-1,93.0,75.4,55.9,51.6,45.6,41.0,70,38,19,29.94,29.78,14,2,15,0.00
2013-6-2,87.6,70.1,55.9,55.8,51.3,46.0,79,54,26,29.78,29.66,17,4,17,0.00
2013-6-3,83.8,65.9,50.0,55.4,51.9,46.8,92,64,34,29.84,29.70,15,4,16,0.00
2013-6-4,81.0,64.6,53.6,57.4,53.3,50.4,90,69,43,29.96,29.83,16,4,17,0.00
2013-6-5,78.8,63.6,51.6,56.3,53.0,49.6,94,71,42,29.99,29.90,16,4,16,0.00
2013-6-6,84.0,66.3,53.1,58.1,54.1,50.4,91,68,39,29.95,29.85,14,4,14,0.00
2013-6-7,99.0,74.4,53.2,63.7,56.9,50.4,93,60,28,29.87,29.74,12,3,14,0.00
2013-6-8,103.1,80.7,64.8,64.0,55.9,48.4,73,46,21,29.77,29.67,17,4,19,0.00
2013-6-9,81.1,66.8,55.8,58.1,55.1,51.6,89,68,41,29.87,29.75,18,4,18,0.00
2013-6-10,76.3,62.8,55.0,54.1,52.0,49.3,86,70,43,29.95,29.83,21,3,21,0.00
2013-6-11,79.5,64.2,53.8,58.5,54.2,50.2,90,72,46,29.98,29.90,11,2,11,0.00
2013-6-12,82.8,65.3,54.7,54.3,47.0,35.8,82,56,20,30.01,29.90,15,4,15,0.00
2013-6-13,80.1,61.3,45.7,45.1,41.1,35.8,81,51,22,30.09,30.01,13,2,14,0.00
2013-6-14,85.8,70.0,52.3,43.7,38.5,32.9,67,35,17,30.01,29.83,17,2,17,0.00
2013-6-15,81.3,64.8,53.4,54.3,47.8,34.5,84,56,30,30.00,29.82,15,4,16,0.00
2013-6-16,83.7,65.9,50.7,51.1,46.0,36.7,76,52,19,30.10,30.00,12,3,13,0.00
2013-6-17,75.6,62.2,54.3,55.6,51.3,47.3,90,69,39,30.10,30.05,15,4,16,0.00
2013-6-18,67.3,59.1,52.7,52.3,49.3,45.3,92,72,46,30.06,30.03,19,2,21,0.00
2013-6-19,73.6,59.9,47.1,52.5,47.8,43.0,93,67,35,30.06,30.02,16,3,16,0.00
2013-6-20,80.4,62.4,47.5,51.3,45.8,39.2,90,59,28,30.03,29.96,18,3,18,0.00
2013-6-21,84.7,65.7,48.4,50.4,44.2,37.9,80,50,24,29.99,29.92,14,2,15,0.00
2013-6-22,88.3,69.9,52.5,52.0,43.8,32.5,78,43,17,29.94,29.86,15,3,15,0.00
2013-6-23,71.8,63.7,56.8,59.9,56.7,51.4,93,79,61,29.89,29.81,12,2,14,0.00
2013-6-24,70.9,64.5,61.3,61.7,59.5,58.1,93,84,69,29.91,29.79,14,3,14,0.03
2013-6-25,79.0,69.6,62.4,64.6,60.7,55.6,89,74,60,29.98,29.89,19,4,19,0.00
2013-6-26,85.8,71.5,60.6,65.1,61.2,56.8,94,72,47,30.05,29.97,10,2,14,0.00
2013-6-27,91.2,74.6,57.9,63.5,56.4,46.0,92,58,26,30.07,30.01,11,2,11,0.00
2013-6-28,100.6,82.2,63.3,60.1,52.6,44.8,70,40,19,30.04,29.90,15,3,17,0.00
2013-6-29,102.6,84.6,64.9,53.6,50.1,37.4,62,34,13,29.93,29.80,12,3,13,0.00
2013-6-30,99.9,81.0,66.7,57.4,52.8,44.6,54,40,16,29.84,29.75,15,4,15,0.00
2013-7-1,100.6,82.8,64.4,58.6,52.2,36.5,66,38,14,29.83,29.78,14,3,14,0.00
2013-7-2,102.6,83.1,70.3,64.2,58.9,52.0,68,46,23,29.88,29.79,18,4,18,0.00
2013-7-3,100.2,79.3,61.3,64.6,59.7,54.5,85,56,23,29.87,29.75,15,3,16,0.00
2013-7-4,103.5,83.4,69.8,63.3,57.7,48.0,74,46,18,29.76,29.67,16,4,17,0.00
2013-7-5,82.8,73.4,60.3,56.3,53.7,45.1,77,52,38,29.76,29.70,16,5,17,0.00
2013-7-6,85.3,67.3,53.4,55.9,53.0,48.2,91,64,33,29.79,29.71,16,5,17,0.00
2013-7-7,89.8,68.0,49.8,56.5,52.5,44.1,93,63,21,29.84,29.76,15,4,16,0.00
2013-7-8,90.7,69.2,52.9,56.1,51.8,38.5,92,62,18,29.93,29.84,14,4,16,0.00
2013-7-9,97.7,77.1,56.8,57.7,50.2,40.6,84,45,15,30.01,29.91,12,2,13,0.00
2013-7-10,90.3,71.4,57.4,60.1,55.1,42.6,92,61,21,29.96,29.87,14,5,17,0.00
2013-7-11,85.3,66.5,54.7,57.9,54.0,45.3,94,69,29,29.93,29.86,16,5,16,0.00
2013-7-12,87.3,67.7,52.2,54.3,50.8,44.1,91,59,27,29.92,29.87,16,4,17,0.00
2013-7-13,91.8,72.7,55.8,52.3,45.5,28.0,78,43,12,29.95,29.88,15,3,15,0.00
2013-7-14,88.5,70.0,56.1,54.9,51.6,43.5,87,56,24,29.97,29.88,13,4,13,0.00
2013-7-15,80.8,63.9,54.1,56.8,53.7,49.8,93,73,39,29.91,29.81,15,4,15,0.00
2013-7-16,78.1,62.2,54.0,55.8,53.0,50.7,92,74,43,30.04,29.86,17,4,17,0.00
2013-7-17,82.4,66.0,54.7,58.5,54.4,50.2,88,69,36,30.10,30.03,11,3,11,0.00
2013-7-18,91.0,69.7,51.1,56.5,49.2,34.3,96,57,15,30.06,29.94,16,2,16,0.00
2013-7-19,91.4,70.7,52.9,58.1,54.6,47.3,94,61,25,29.95,29.81,13,2,13,0.00
2013-7-20,91.8,70.1,55.4,59.4,56.1,51.8,94,67,28,29.84,29.72,16,4,16,0.00
2013-7-21,91.6,72.5,57.0,57.9,53.7,44.1,87,57,21,29.85,29.75,18,4,18,0.00
2013-7-22,85.6,71.5,59.4,60.6,56.2,50.2,86,61,38,29.94,29.84,17,3,17,0.00
2013-7-23,91.4,73.7,63.1,60.4,57.0,49.8,81,59,32,29.98,29.92,12,2,14,0.00
2013-7-24,94.6,75.8,60.3,58.6,46.5,29.1,81,43,14,29.97,29.89,10,1,10,0.00
2013-7-25,90.9,74.1,60.8,60.3,52.7,39.7,80,49,29,30.01,29.91,15,2,16,0.00
2013-7-26,92.5,71.8,57.6,60.3,55.6,39.6,90,62,17,30.07,29.99,15,3,15,0.00
2013-7-27,87.6,70.0,57.2,59.4,56.3,46.6,93,66,25,30.01,29.84,14,4,16,0.00
2013-7-28,85.6,67.8,55.6,57.6,55.2,53.1,92,68,37,29.86,29.78,16,5,19,0.00
2013-7-29,83.5,66.1,52.9,56.1,53.6,50.9,93,68,35,29.99,29.82,16,5,18,0.00
2013-7-30,84.9,66.4,52.2,58.1,53.9,49.3,95,68,30,30.08,29.99,16,3,16,0.00
2013-7-31,84.6,65.3,54.3,56.8,52.1,44.6,92,66,31,30.07,30.01,13,3,13,0.00
2013-8-1,79.5,62.8,49.6,52.3,48.8,44.4,86,63,32,30.07,29.98,13,2,15,0.00
2013-8-2,86.2,66.7,51.6,54.9,49.3,37.6,82,57,19,29.98,29.90,14,2,14,0.00
2013-8-3,84.7,65.7,52.3,56.5,52.9,47.1,95,68,29,29.97,29.89,13,3,16,0.00
2013-8-4,84.2,64.7,54.9,56.1,53.6,48.4,92,71,32,30.00,29.93,14,3,14,0.00
2013-8-5,83.5,64.8,54.1,57.4,54.2,49.8,93,72,33,30.01,29.93,13,2,14,0.00
2013-8-6,79.7,62.6,54.7,58.3,54.1,51.6,93,76,43,30.05,29.97,13,1,13,0.00
2013-8-7,78.1,63.3,53.8,57.9,54.0,49.6,93,74,39,30.09,30.03,15,1,19,0.00
2013-8-8,79.7,62.7,53.4,58.3,54.4,50.2,94,77,42,30.04,29.93,13,1,14,0.00
2013-8-9,78.4,63.9,55.0,58.3,54.6,51.8,92,74,47,30.00,29.93,15,1,17,0.00
2013-8-10,81.0,64.3,55.9,60.1,55.4,52.3,93,75,42,30.05,29.99,13,2,13,0.00
2013-8-11,84.0,66.8,55.9,58.8,52.7,44.4,95,66,28,30.03,29.94,13,2,14,0.00
2013-8-12,87.8,69.2,53.4,56.5,50.3,39.4,84,55,22,29.98,29.94,17,3,18,0.00
2013-8-13,92.8,72.2,55.0,52.9,46.8,31.8,75,45,13,29.98,29.91,11,3,11,0.00
2013-8-14,88.3,69.9,55.9,58.8,51.0,39.4,86,55,18,29.97,29.92,15,4,15,0.00
2013-8-15,87.3,70.5,56.1,62.2,59.5,54.1,96,71,37,29.97,29.92,12,3,12,0.00
2013-8-16,88.2,71.8,59.2,63.1,54.6,36.5,90,59,34,29.98,29.93,12,2,12,0.00
2013-8-17,87.3,71.3,61.2,59.0,52.2,37.2,72,52,27,29.98,29.88,14,3,14,0.00
2013-8-18,97.9,77.2,59.2,60.1,54.6,48.4,82,51,22,29.88,29.77,13,2,13,0.00
2013-8-19,99.7,80.7,67.5,61.0,55.9,50.2,73,45,22,29.88,29.79,14,2,16,0.00
2013-8-20,91.2,73.2,61.2,59.5,57.1,52.0,88,61,28,29.87,29.79,16,4,16,0.00
2013-8-21,85.5,67.0,55.8,57.4,54.8,49.8,90,69,30,29.93,29.83,14,3,14,0.00
2013-8-22,81.0,64.0,56.1,57.7,55.1,52.0,93,75,41,29.96,29.89,14,2,14,0.00
2013-8-23,81.9,65.7,54.7,57.7,54.0,49.1,92,69,40,29.94,29.83,16,2,16,0.00
2013-8-24,80.8,66.0,54.3,58.5,53.8,47.7,90,67,43,29.92,29.85,16,2,16,0.00
2013-8-25,85.3,68.1,58.5,62.2,58.7,55.2,93,75,39,29.94,29.88,17,2,20,0.00
2013-8-26,79.2,66.4,58.6,59.4,56.1,49.3,92,72,43,30.00,29.91,11,2,11,0.00
2013-8-27,87.1,68.2,55.0,56.8,51.8,46.8,78,59,32,29.92,29.82,31,2,38,0.00
2013-8-28,84.7,68.5,55.6,62.4,57.0,51.4,91,69,39,29.95,29.86,12,2,13,0.00
2013-8-29,83.5,68.4,57.7,63.1,58.7,55.0,96,74,39,30.05,29.95,14,2,14,0.00
2013-8-30,91.8,73.2,56.7,60.8,54.7,46.0,91,58,22,30.05,29.92,13,2,16,0.00
2013-8-31,88.0,72.5,60.8,57.7,53.3,45.5,76,53,29,29.97,29.88,13,3,13,0.00
2013-9-1,87.8,70.6,60.6,58.8,55.9,52.5,83,62,35,29.94,29.86,14,3,14,0.00
2013-9-2,82.0,68.8,62.1,63.5,59.7,55.4,91,74,46,29.96,29.88,15,2,17,0.00
2013-9-3,78.8,66.2,56.7,58.8,53.4,45.7,89,67,36,30.00,29.94,17,2,17,0.00
2013-9-4,79.3,64.9,54.0,58.1,54.3,50.2,92,71,38,30.04,29.97,17,3,18,0.00
2013-9-5,79.5,65.8,57.0,57.2,54.3,46.2,87,69,32,30.02,29.97,14,3,15,0.00
2013-9-6,90.1,71.4,51.4,52.9,48.4,43.7,84,50,23,30.00,29.83,19,3,19,0.00
2013-9-7,95.5,77.0,60.6,51.3,45.3,41.0,61,35,17,29.87,29.79,12,2,13,0.00
2013-9-8,95.5,76.2,60.1,58.1,50.6,43.5,69,43,23,29.85,29.75,12,2,12,0.00
2013-9-9,97.2,77.8,64.0,57.2,47.3,37.6,67,38,16,29.79,29.70,14,2,14,0.00
2013-9-10,84.6,70.5,59.7,59.7,53.6,38.5,86,58,31,29.88,29.72,15,4,15,0.00
2013-9-11,80.1,64.4,55.2,59.0,55.8,52.7,93,76,42,29.98,29.88,12,2,13,0.00
2013-9-12,81.9,66.3,57.4,61.3,57.9,54.9,94,77,45,29.98,29.88,12,2,12,0.00
2013-9-13,83.5,67.0,57.2,61.5,55.8,47.8,96,70,39,29.92,29.78,14,2,15,0.00
2013-9-14,76.8,61.5,52.2,58.5,53.9,48.9,96,78,49,29.84,29.76,12,2,12,0.00
2013-9-15,78.1,63.0,51.3,57.6,54.2,48.7,95,75,47,29.88,29.81,14,2,14,0.00
2013-9-16,83.7,64.7,53.1,60.4,54.8,49.5,96,74,32,29.90,29.81,13,2,14,0.00
2013-9-17,72.9,62.1,54.7,55.8,53.4,49.8,88,74,46,29.90,29.86,20,3,20,0.00
2013-9-18,82.0,64.7,50.9,52.3,46.9,41.7,93,58,27,29.92,29.83,16,3,16,0.00
2013-9-19,89.4,69.9,53.2,46.4,41.4,33.4,72,40,17,29.86,29.75,11,2,11,0.00
2013-9-20,74.5,64.1,55.8,59.5,51.7,33.6,87,66,35,29.87,29.77,18,2,18,0.00
2013-9-21,68.7,61.0,55.4,57.9,55.7,52.7,93,83,61,29.91,29.81,21,3,24,0.71
2013-9-22,71.1,60.0,52.7,56.3,53.2,50.7,96,80,51,30.02,29.91,13,1,14,0.71
2013-9-23,80.4,63.9,50.9,58.6,54.1,49.3,96,74,39,30.03,29.94,14,2,14,0.01
2013-9-24,73.6,62.0,53.8,57.4,53.4,49.1,90,75,44,30.01,29.94,13,2,14,0.00
2013-9-25,67.1,56.7,49.5,51.6,48.1,44.2,94,75,48,29.95,29.85,16,2,18,0.00
2013-9-26,72.0,57.0,45.5,49.3,42.0,35.6,94,62,30,30.00,29.85,19,2,19,0.00
2013-9-27,75.7,60.8,46.9,42.4,38.5,32.0,82,48,21,30.11,30.00,16,2,16,0.00
2013-9-28,82.4,64.6,49.8,49.3,38.2,31.1,75,42,16,30.10,30.00,10,2,10,0.00
2013-9-29,76.1,63.0,52.2,57.4,53.7,47.8,91,74,49,30.11,30.05,13,2,13,0.00
2013-9-30,75.6,63.5,54.9,60.3,56.6,52.7,94,79,56,30.09,29.98,13,2,13,0.00
2013-10-1,74.1,59.8,49.1,57.0,47.5,43.0,94,67,37,30.02,29.93,11,3,11,0.00
2013-10-2,77.4,59.7,49.1,50.9,45.2,39.4,84,62,26,30.02,29.94,11,2,12,0.00
2013-10-3,71.6,61.3,46.9,45.3,33.6,23.0,87,41,18,30.07,29.95,28,5,28,0.00
2013-10-4,76.5,67.2,58.3,33.8,29.3,24.8,33,25,18,30.12,29.95,29,6,29,0.00
2013-10-5,83.3,67.4,52.2,32.4,28.0,25.3,41,24,13,30.20,30.11,11,2,11,0.00
2013-10-6,86.7,67.6,53.2,37.0,31.6,17.6,45,28,8,30.13,30.01,8,2,12,0.00
2013-10-7,82.9,66.6,54.5,41.5,31.7,19.8,56,30,13,30.01,29.88,13,2,14,0.00
2013-10-8,74.1,60.9,50.5,46.4,36.6,28.4,83,42,29,29.90,29.72,18,3,18,0.00
2013-10-9,66.2,55.1,45.5,48.7,44.5,40.6,91,69,45,29.78,29.63,12,2,12,0.00
2013-10-10,73.8,58.7,47.3,49.3,43.0,37.6,85,60,29,30.01,29.78,14,2,14,0.00
2013-10-11,71.4,56.1,45.7,51.3,46.2,41.7,91,71,44,30.08,29.99,11,2,11,0.00
2013-10-12,74.1,56.9,45.1,48.7,43.0,34.9,86,64,26,30.01,29.92,12,2,12,0.00
2013-10-13,71.8,57.0,44.8,47.5,42.5,38.3,94,62,31,30.09,29.94,17,2,17,0.00
2013-10-14,76.1,61.3,47.3,41.2,36.8,30.2,78,44,24,30.13,30.01,14,2,15,0.00
2013-10-15,75.9,63.7,48.6,38.1,32.9,30.2,58,33,20,30.06,29.96,20,3,20,0.00
2013-10-16,82.8,64.5,50.9,38.5,34.1,29.8,55,34,17,30.10,30.01,11,2,11,0.00
2013-10-17,80.4,63.6,50.2,38.8,33.4,26.8,61,35,14,30.09,29.97,11,2,12,0.00
2013-10-18,81.9,64.3,50.0,43.9,36.9,31.5,58,39,19,30.05,29.98,10,2,11,0.00
2013-10-19,83.3,65.1,50.9,43.9,39.4,33.1,67,42,18,30.07,29.99,11,2,11,0.00
2013-10-20,82.2,64.0,49.8,46.8,38.4,28.6,67,41,17,30.03,29.91,11,2,12,0.00
2013-10-21,78.1,60.6,47.5,52.2,43.1,31.6,90,55,28,29.99,29.91,10,2,10,0.00
2013-10-22,81.7,60.8,46.0,52.5,45.3,37.2,86,59,28,30.02,29.92,12,2,12,0.00
2013-10-23,76.5,57.9,45.7,52.2,47.8,37.9,95,72,39,29.98,29.89,11,2,11,0.00
2013-10-24,62.4,52.2,46.8,51.3,47.8,44.4,96,86,65,30.12,29.97,10,1,10,0.00
2013-10-25,75.4,56.5,45.9,52.9,47.5,43.7,96,75,37,30.18,30.09,11,1,11,0.00
2013-10-26,79.0,60.7,45.7,46.9,43.5,37.0,88,57,26,30.15,30.02,13,2,14,0.00
2013-10-27,66.0,54.4,48.4,50.9,45.5,36.3,94,73,51,30.04,29.73,19,3,21,0.00
2013-10-28,60.4,52.9,46.6,48.0,45.6,42.1,92,77,53,29.87,29.69,17,2,17,0.01
2013-10-29,63.0,53.4,45.0,47.7,45.5,41.0,88,75,54,30.06,29.87,12,2,12,0.00
2013-10-30,65.5,52.2,41.9,47.3,43.4,39.7,94,74,45,30.16,30.06,9,2,10,0.00
2013-10-31,71.1,55.4,43.3,46.4,42.0,39.2,89,64,34,30.19,30.08,13,2,13,0.00
2013-11-1,74.8,58.3,45.7,44.6,40.5,36.1,77,54,30,30.15,30.03,10,2,10,0.00
2013-11-2,73.6,57.3,46.0,51.1,41.8,32.2,84,58,37,30.04,29.93,11,2,11,0.00
2013-11-3,62.8,55.4,46.9,43.3,29.0,20.8,84,38,21,30.04,29.93,16,3,16,0.00
2013-11-4,65.3,55.0,43.0,35.2,28.6,24.1,71,38,22,30.08,29.91,15,2,16,0.00
2013-11-5,69.4,59.7,50.2,36.0,29.6,24.4,58,33,24,30.24,30.08,20,3,20,0.00
2013-11-6,70.9,57.3,45.0,40.6,35.4,31.1,70,45,26,30.27,30.18,10,2,10,0.00
2013-11-7,74.5,58.8,49.6,39.0,34.5,29.5,64,42,22,30.18,30.08,9,1,9,0.00
2013-11-8,73.8,57.8,46.2,47.7,43.1,36.7,80,60,34,30.09,29.97,10,2,11,0.00
2013-11-9,75.6,57.8,46.4,47.5,40.7,30.7,87,57,23,30.05,29.98,9,2,9,0.00
2013-11-10,67.6,54.2,44.4,48.2,42.6,28.9,92,66,39,30.12,30.03,10,2,10,0.00
2013-11-11,69.6,55.5,42.6,49.1,45.1,38.7,94,70,41,30.18,30.09,9,1,9,0.00
2013-11-12,72.3,59.4,49.8,48.9,45.5,41.7,76,61,37,30.27,30.16,8,1,8,0.00
2013-11-13,76.1,58.7,45.7,46.6,43.3,38.8,83,60,31,30.27,30.12,11,2,11,0.00
2013-11-14,71.1,54.9,45.9,53.1,47.2,42.3,95,77,47,30.12,29.90,11,2,12,0.00
2013-11-15,63.5,50.8,41.7,46.2,40.4,36.1,94,70,37,29.91,29.74,14,2,14,0.00
2013-11-16,61.3,50.7,41.4,49.3,42.5,35.8,90,75,45,29.95,29.79,11,2,12,0.00
2013-11-17,62.6,50.8,42.4,49.1,44.1,40.6,96,79,51,30.10,29.95,9,1,9,0.00
2013-11-18,60.4,49.4,41.7,47.7,43.7,39.6,94,81,57,30.16,30.09,11,1,11,0.00
2013-11-19,62.8,54.4,45.9,53.6,48.9,43.2,95,82,63,30.12,29.97,8,2,9,0.31
2013-11-20,61.5,55.2,50.5,57.4,53.4,49.6,97,94,81,29.97,29.85,14,1,15,0.77
2013-11-21,56.5,51.2,46.0,49.6,36.7,24.6,97,62,33,30.01,29.90,22,4,25,0.09
2013-11-22,63.9,52.6,48.7,24.4,18.9,11.8,36,27,19,30.06,29.95,21,6,25,0.00
2013-11-23,63.1,52.3,43.0,37.9,35.3,29.1,81,56,30,30.13,30.01,4,0,6,0.00
2013-11-24,62.6,48.9,39.6,42.4,38.8,35.4,88,70,40,30.28,30.12,7,0,8,0.00
2013-11-25,62.4,49.3,39.7,45.1,40.8,36.7,91,74,50,30.35,30.27,10,1,10,0.00
2013-11-26,60.4,50.2,42.1,44.2,41.6,38.3,88,73,52,30.29,30.05,10,1,10,0.00
2013-11-27,62.1,50.9,42.3,47.8,44.0,38.8,90,78,58,30.05,29.86,12,2,12,0.00
2013-11-28,66.0,53.4,43.3,45.9,41.9,39.4,89,67,44,30.10,29.89,11,1,11,0.00
2013-11-29,68.7,54.0,44.1,44.1,40.3,37.0,81,62,36,30.24,30.10,7,0,7,0.00
2013-11-30,65.7,52.1,42.1,43.7,40.1,36.0,85,65,42,30.28,30.20,9,1,10,0.00
2013-12-1,68.7,53.9,42.3,44.6,40.7,38.1,89,64,37,30.35,30.23,12,1,12,0.00
2013-12-2,67.3,52.5,43.2,49.3,44.1,38.8,95,75,47,30.25,29.99,10,1,11,0.00
2013-12-3,52.2,45.7,36.3,51.1,38.5,20.5,96,77,42,29.99,29.86,11,0,12,0.05
2013-12-4,47.7,39.3,28.2,25.2,19.2,14.5,69,45,30,30.10,29.94,13,1,13,0.00
2013-12-5,47.7,36.8,26.4,21.2,17.4,12.7,74,47,30,30.20,30.09,11,1,11,0.00
2013-12-6,50.7,40.5,28.4,43.5,30.9,20.3,92,71,38,30.21,29.94,14,1,15,0.37
2013-12-7,46.2,40.1,30.6,44.2,31.4,25.3,94,72,47,30.26,29.94,14,1,15,0.32
2013-12-8,41.7,35.2,29.8,27.7,22.8,15.4,88,62,43,30.34,30.24,14,2,14,0.00
2013-12-9,45.9,37.1,30.7,26.2,19.5,12.7,80,50,35,30.44,30.33,19,2,19,0.00
2013-12-10,48.7,37.5,28.6,30.7,26.7,21.4,80,66,44,30.43,30.24,9,1,11,0.00
2013-12-11,52.2,40.1,32.4,31.8,28.6,24.1,82,65,39,30.27,30.21,10,1,11,0.00
2013-12-12,57.4,42.5,32.2,34.9,30.5,25.5,80,64,39,30.29,30.19,10,1,10,0.00
2013-12-13,58.1,44.5,33.1,37.8,30.0,20.7,85,61,25,30.35,30.25,12,1,12,0.00
2013-12-14,58.1,45.1,35.8,36.9,34.4,31.3,87,68,44,30.40,30.33,11,1,13,0.00
2013-12-15,60.1,46.7,36.0,38.5,35.1,30.2,81,65,42,30.40,30.27,9,1,9,0.00
2013-12-16,64.8,50.6,40.5,38.3,34.8,30.9,73,56,35,30.27,30.15,10,1,10,0.00
2013-12-17,63.3,51.7,41.2,41.4,36.8,30.0,73,57,41,30.19,30.05,11,1,11,0.00
2013-12-18,64.4,51.8,44.6,43.9,39.9,33.6,89,66,39,30.05,29.80,8,0,8,0.00
2013-12-19,56.5,48.2,38.3,43.9,31.6,18.5,92,57,30,29.94,29.73,28,3,30,0.00
2013-12-20,58.5,48.4,39.9,27.9,13.0,3.6,61,26,13,30.02,29.94,19,2,19,0.00
2013-12-21,62.1,47.5,37.0,43.7,35.5,23.5,89,64,43,30.10,29.99,11,1,11,0.00
2013-12-22,64.2,55.4,44.4,39.9,35.6,33.6,80,48,34,30.30,30.10,18,3,18,0.00
2013-12-23,61.9,49.5,39.9,39.9,37.2,34.3,84,64,43,30.39,30.29,9,1,10,0.00
2013-12-24,67.1,55.7,38.8,40.6,33.7,20.8,83,47,18,30.36,30.22,22,2,22,0.00
2013-12-25,62.1,50.4,40.5,41.4,35.8,26.2,73,58,43,30.30,30.21,12,1,12,0.00
2013-12-26,65.1,51.0,38.8,42.1,36.3,27.9,85,58,38,30.27,30.19,10,1,11,0.00
2013-12-27,60.1,50.0,39.9,41.5,34.0,23.7,80,54,38,30.25,30.13,12,1,12,0.00
2013-12-28,63.9,54.2,38.1,32.2,26.8,21.0,73,38,22,30.17,30.05,18,3,20,0.00
2013-12-29,64.6,56.0,42.8,33.6,24.5,15.6,60,32,18,30.19,30.09,25,3,25,0.00
2013-12-30,64.0,49.7,39.6,36.3,30.3,24.4,66,48,32,30.27,30.18,9,0,10,0.00
2013-12-31,63.3,48.3,37.9,38.3,30.3,19.2,73,50,33,30.28,30.16,14,1,14,0.00
2014-1-1,65.7,50.3,35.8,32.0,27.7,18.0,77,44,26,30.23,30.14,9,1,9,0.00
2014-1-2,64.2,51.8,41.4,37.0,33.0,29.3,64,49,36,30.19,30.07,8,1,10,0.00